Weather History for Sexton Summit, OR

Change the Weather History Date:

Saturday, December 8, 2012

  Actual Average Record
Temperature  
Mean Temperature 31 °F -  
Max Temperature 32 °F 38 °F 51 °F (2000)
Min Temperature 30 °F 32 °F 12 °F (2013)
Degree Days  
Heating Degree Days 34    
Moisture  
Dew Point 29 °F    
Average Humidity 93    
Maximum Humidity 100    
Minimum Humidity 79    
Precipitation  
Precipitation 0.00 in - - ()
Sea Level Pressure  
Sea Level Pressure 30.21 in    
Wind  
Wind Speed 2 mph (NNE)    
Max Wind Speed 8 mph    
Max Gust Speed -    
Visibility 4 miles    
Events Fog    
Averages and records for this station are not official NWS values.
T = Trace of Precipitation, MM = Missing Value Source: NWS Daily Summary

Daily Weather History Graph

Daily Weather History Graph

Search for Another Location

Airport:

Trip Planner

Search our weather history database for the weather conditions in past years. The results will help you decide how hot, cold, wet, or windy it might be!

Date:

Astronomy

Dec. 08, 2012 Rise Set
Actual Time 7:31 AM PST 4:39 PM PST
Civil Twilight 6:59 AM PST 5:11 PM PST
Nautical Twilight 6:23 AM PST 5:47 PM PST
Astronomical Twilight 5:49 AM PST 6:21 PM PST
Moon 1:56 AM PST (12/8) 1:18 PM PST (12/8)
Length of Visible Light 10h 12m
Length of Day
9h 08m
Waning Crescent, 27% of the Moon is Illuminated
Dec 8
Waning Crescent
Dec 13
New
Dec 19
First Quarter
Dec 28
Full
Jan 4
Last Quarter

Hourly Weather History & Observations

Time (PST) Temp. Windchill Dew Point Humidity Pressure Visibility Wind Dir Wind Speed Gust Speed Precip Events Conditions
12:56 AM 32.0 °F - 30.9 °F 96% 30.16 in 1.0 mi Calm Calm - N/A   Mist
1:01 AM 32.0 °F - 30.2 °F 93% 30.16 in 0.8 mi Calm Calm - N/A   Mist
1:30 AM 32.0 °F - 30.2 °F 93% 30.16 in 0.5 mi Calm Calm - 0.00 in Fog Fog
1:37 AM 32.0 °F - 30.2 °F 93% 30.16 in 0.2 mi Calm Calm - 0.00 in Fog Fog
1:49 AM 32.0 °F - 30.2 °F 93% 30.16 in 0.2 mi Calm Calm - 0.00 in Fog Fog
1:56 AM 32.0 °F - 30.9 °F 96% 30.23 in 0.2 mi Calm Calm - 0.00 in Fog Fog
2:22 AM 32.0 °F - 30.2 °F 93% 30.16 in 0.5 mi Calm Calm - N/A Fog Fog
2:47 AM 32.0 °F - 30.2 °F 93% 30.15 in 0.2 mi Calm Calm - N/A Fog Fog
2:56 AM 32.0 °F - 30.9 °F 96% 30.22 in 0.2 mi Calm Calm - N/A Fog Fog
3:07 AM 32.0 °F 28.7 °F 30.2 °F 93% 30.15 in 0.5 mi Variable 3.5 mph - N/A Fog Fog
3:18 AM 32.0 °F - 30.2 °F 93% 30.15 in 1.2 mi Calm Calm - N/A   Overcast
3:28 AM 32.0 °F - 30.2 °F 93% 30.14 in 0.2 mi Calm Calm - N/A Fog Fog
3:40 AM 32.0 °F 28.7 °F 30.2 °F 93% 30.14 in 0.8 mi NW 3.5 mph - N/A   Overcast
3:56 AM 32.0 °F - 30.9 °F 96% 30.21 in 0.5 mi Calm Calm - N/A Fog Fog
4:56 AM 32.0 °F - 30.9 °F 96% 30.22 in 0.5 mi Calm Calm - N/A Fog Fog
5:17 AM 30.2 °F 23.4 °F 30.2 °F 100% 30.14 in 0.2 mi NNE 6.9 mph - N/A Fog Light Freezing Fog
5:53 AM 30.2 °F - 30.2 °F 100% 30.15 in 0.2 mi Calm Calm - N/A Fog Light Freezing Fog
5:56 AM 30.9 °F - 30.0 °F 96% 30.23 in 0.2 mi Calm Calm - N/A Fog Light Freezing Fog
6:41 AM 30.2 °F 25.4 °F 30.2 °F 100% 30.16 in 0.2 mi Variable 4.6 mph - 0.00 in Fog Light Freezing Fog
6:56 AM 30.9 °F 24.3 °F 30.0 °F 96% 30.24 in 0.2 mi Variable 6.9 mph - 0.00 in Fog Light Freezing Fog
7:03 AM 30.2 °F 24.3 °F 28.4 °F 93% 30.16 in 0.5 mi Variable 5.8 mph - N/A Fog Light Freezing Fog
7:15 AM 30.2 °F 22.6 °F 28.4 °F 93% 30.16 in 1.0 mi North 8.1 mph - N/A   Overcast
7:20 AM 30.2 °F 23.4 °F 28.4 °F 93% 30.17 in 2.0 mi NNE 6.9 mph - N/A   Overcast
7:30 AM 30.2 °F 23.4 °F 28.4 °F 93% 30.17 in 5.0 mi NNE 6.9 mph - N/A   Overcast
7:56 AM 30.0 °F 23.2 °F 28.0 °F 92% 30.25 in 10.0 mi NNE 6.9 mph - N/A   Partly Cloudy
8:46 AM 30.2 °F 26.7 °F 28.4 °F 93% 30.18 in 2.0 mi Variable 3.5 mph - N/A   Mostly Cloudy
8:51 AM 30.2 °F 25.4 °F 28.4 °F 93% 30.18 in 4.0 mi Variable 4.6 mph - N/A   Mostly Cloudy
8:56 AM 30.0 °F - 28.0 °F 92% 30.26 in 10.0 mi Calm Calm - N/A   Scattered Clouds
9:01 AM 30.2 °F - 28.4 °F 93% 30.18 in 2.5 mi Calm Calm - N/A   Mostly Cloudy
9:14 AM 30.2 °F - 30.2 °F 100% 30.18 in 10.0 mi Calm Calm - N/A   Mostly Cloudy
9:39 AM 32.0 °F 27.5 °F 30.2 °F 93% 30.19 in 10.0 mi East 4.6 mph - N/A   Partly Cloudy
9:56 AM 32.0 °F - 28.9 °F 88% 30.27 in 10.0 mi Calm Calm - 0.00 in   Partly Cloudy
10:19 AM 32.0 °F - 30.2 °F 93% 30.21 in 6.0 mi Calm Calm - 0.00 in   Mostly Cloudy
10:49 AM 32.0 °F 28.7 °F 28.4 °F 87% 30.21 in 10.0 mi NNE 3.5 mph - 0.00 in   Scattered Clouds
10:56 AM 32.0 °F 27.5 °F 28.9 °F 88% 30.29 in 10.0 mi NNE 4.6 mph - 0.00 in   Partly Cloudy
11:56 AM 32.0 °F 26.4 °F 28.0 °F 85% 30.28 in 10.0 mi NNE 5.8 mph - N/A   Clear
12:29 PM 32.0 °F 26.4 °F 30.2 °F 93% 30.19 in 9.0 mi North 5.8 mph - N/A   Scattered Clouds
12:35 PM 32.0 °F - 28.4 °F 87% 30.19 in 1.5 mi Calm Calm - N/A   Mostly Cloudy
12:43 PM 30.2 °F 25.4 °F 28.4 °F 93% 30.19 in 2.0 mi North 4.6 mph - N/A   Mostly Cloudy
12:49 PM 32.0 °F 28.7 °F 30.2 °F 93% 30.19 in 1.2 mi Variable 3.5 mph - N/A   Mostly Cloudy
12:56 PM 32.0 °F 28.7 °F 30.9 °F 96% 30.27 in 0.5 mi North 3.5 mph - N/A Fog Fog
1:56 PM 32.0 °F 27.5 °F 30.9 °F 96% 30.27 in 0.2 mi Variable 4.6 mph - N/A Fog Fog
2:23 PM 32.0 °F 28.7 °F 30.2 °F 93% 30.19 in 1.0 mi North 3.5 mph - N/A   Mist
2:35 PM 32.0 °F - 30.2 °F 93% 30.19 in 0.8 mi Calm Calm - N/A   Mist
2:56 PM 32.0 °F 28.7 °F 30.9 °F 96% 30.27 in 0.5 mi North 3.5 mph - N/A Fog Fog
3:11 PM 32.0 °F 28.7 °F 30.2 °F 93% 30.19 in 0.2 mi NNW 3.5 mph - N/A Fog Fog
3:56 PM 32.0 °F 28.7 °F 30.0 °F 92% 30.27 in 0.2 mi Variable 3.5 mph - N/A Fog Fog
4:56 PM 30.9 °F 24.3 °F 30.0 °F 96% 30.27 in 0.2 mi North 6.9 mph - N/A Fog Light Freezing Fog
5:23 PM 30.2 °F 23.4 °F 28.4 °F 93% 30.20 in 1.0 mi North 6.9 mph - N/A   Mist
5:25 PM 30.2 °F 23.4 °F 28.4 °F 93% 30.20 in 2.0 mi NNE 6.9 mph - N/A   Mostly Cloudy
5:27 PM 30.2 °F 23.4 °F 28.4 °F 93% 30.20 in 5.0 mi NNE 6.9 mph - N/A   Scattered Clouds
5:56 PM 30.0 °F 22.4 °F 28.0 °F 92% 30.29 in 10.0 mi NNE 8.1 mph - N/A   Clear
6:56 PM 30.9 °F 26.2 °F 25.0 °F 79% 30.30 in 10.0 mi NE 4.6 mph - N/A   Clear
7:56 PM 30.9 °F - 28.9 °F 92% 30.31 in 10.0 mi Calm Calm - N/A   Clear
8:56 PM 30.9 °F 27.5 °F 28.0 °F 89% 30.31 in 10.0 mi SE 3.5 mph - N/A   Clear
9:56 PM 30.9 °F 26.2 °F 27.0 °F 85% 30.32 in 10.0 mi ESE 4.6 mph - N/A   Mostly Cloudy
10:56 PM 30.9 °F 26.2 °F 27.0 °F 85% 30.34 in 10.0 mi ESE 4.6 mph - N/A   Overcast
11:56 PM 32.0 °F 28.7 °F 27.0 °F 82% 30.35 in 10.0 mi ESE 3.5 mph - N/A   Overcast